Weather History for PAVD - November, 2012

Change the Weather History Date:

Friday, November 2, 2012

  Actual Average Record
Temperature  
Mean Temperature 24 °F -  
Max Temperature 30 °F 36 °F 44 °F (1973)
Min Temperature 19 °F 28 °F 8 °F (1975)
Degree Days  
Heating Degree Days 40    
Moisture  
Dew Point 7 °F    
Average Humidity 45    
Maximum Humidity 74    
Minimum Humidity 34    
Precipitation  
Precipitation 0.00 in - - ()
Sea Level Pressure  
Sea Level Pressure 29.47 in    
Wind  
Wind Speed 6 mph (ENE)    
Max Wind Speed 14 mph    
Max Gust Speed 22 mph    
Visibility 10 miles    
Events      
Averages and records for this station are not official NWS values.
T = Trace of Precipitation, MM = Missing Value Source: NWS Daily Summary

Daily Weather History Graph

Daily Weather History Graph

Search for Another Location

Airport or City:

Trip Planner

Search our weather history database for the weather conditions in past years. The results will help you decide how hot, cold, wet, or windy it might be!

Date:

Astronomy

Nov. 02, 2012 Rise Set
Actual Time 9:17 AM AKDT 5:39 PM AKDT
Civil Twilight 8:29 AM AKDT 6:26 PM AKDT
Nautical Twilight 7:37 AM AKDT 7:18 PM AKDT
Astronomical Twilight 6:47 AM AKDT 8:07 PM AKDT
Moon 7:54 PM AKDT (11/2) 1:25 PM AKDT (11/2)
Length of Visible Light 9h 57m
Length of Day
8h 22m
Waning Gibbous, 86% of the Moon is Illuminated
Nov 2
Waning Gibbous
Nov 6
Last Quarter
Nov 13
New
Nov 20
First Quarter
Nov 28
Full

Hourly Weather History & Observations

Time (AKDT) Temp. Windchill Dew Point Humidity Pressure Visibility Wind Dir Wind Speed Gust Speed Precip Events Conditions
12:16 AM 28.4 °F 23.3 °F 6.8 °F 40% 29.67 in 10.0 mi ENE 4.6 mph - N/A   Clear
12:36 AM 28.4 °F 21.2 °F 5.0 °F 37% 29.67 in 10.0 mi NE 6.9 mph - N/A   Clear
12:56 AM 28.4 °F 17.5 °F 6.8 °F 40% 29.65 in 10.0 mi ENE 13.8 mph 18.4 mph N/A   Clear
1:16 AM 28.4 °F - 6.8 °F 40% 29.64 in 10.0 mi Calm Calm - N/A   Clear
1:36 AM 28.4 °F 20.4 °F 6.8 °F 40% 29.63 in 10.0 mi SSE 8.1 mph - N/A   Clear
1:56 AM 28.4 °F 24.6 °F 5.0 °F 37% 29.63 in 10.0 mi NNE 3.5 mph - N/A   Clear
2:16 AM 28.4 °F 23.3 °F 3.2 °F 34% 29.62 in 10.0 mi North 4.6 mph - N/A   Clear
2:56 AM 30.2 °F 25.4 °F 5.0 °F 34% 29.60 in 10.0 mi ENE 4.6 mph - N/A   Clear
3:16 AM 28.4 °F 23.3 °F 5.0 °F 37% 29.59 in 10.0 mi South 4.6 mph - N/A   Clear
3:36 AM 28.4 °F 21.2 °F 3.2 °F 34% 29.58 in 10.0 mi East 6.9 mph - N/A   Clear
3:56 AM 30.2 °F 21.9 °F 5.0 °F 34% 29.57 in 10.0 mi ENE 9.2 mph - N/A   Clear
4:16 AM 28.4 °F 22.2 °F 5.0 °F 37% 29.56 in 10.0 mi SE 5.8 mph - N/A   Clear
4:36 AM 28.4 °F 23.3 °F 5.0 °F 37% 29.55 in 10.0 mi North 4.6 mph - N/A   Clear
4:56 AM 28.4 °F 19.1 °F 3.2 °F 34% 29.54 in 10.0 mi NE 10.4 mph - N/A   Clear
5:56 AM 28.4 °F 22.2 °F 5.0 °F 37% 29.53 in 10.0 mi North 5.8 mph 21.9 mph N/A   Mostly Cloudy
6:16 AM 28.4 °F 22.2 °F 3.2 °F 34% 29.52 in 10.0 mi North 5.8 mph 20.7 mph N/A   Mostly Cloudy
6:36 AM 28.4 °F 19.7 °F 6.8 °F 40% 29.50 in 10.0 mi NNE 9.2 mph 16.1 mph N/A   Mostly Cloudy
6:56 AM 28.4 °F 19.7 °F 5.0 °F 37% 29.50 in 10.0 mi ENE 9.2 mph 19.6 mph N/A   Mostly Cloudy
7:16 AM 28.4 °F 18.0 °F 5.0 °F 37% 29.49 in 10.0 mi NNE 12.7 mph - N/A   Mostly Cloudy
7:36 AM 28.4 °F 22.2 °F 3.2 °F 34% 29.49 in 10.0 mi ENE 5.8 mph - N/A   Mostly Cloudy
7:56 AM 26.6 °F 16.2 °F 5.0 °F 40% 29.47 in 10.0 mi East 11.5 mph 16.1 mph N/A   Overcast
8:16 AM 26.6 °F 17.5 °F 6.8 °F 43% 29.46 in 10.0 mi NE 9.2 mph 19.6 mph N/A   Overcast
8:36 AM 26.6 °F 20.0 °F 5.0 °F 40% 29.45 in 10.0 mi ENE 5.8 mph - N/A   Overcast
9:16 AM 28.4 °F 23.3 °F 3.2 °F 34% 29.42 in 10.0 mi NNE 4.6 mph - N/A   Overcast
9:36 AM 28.4 °F 22.2 °F 3.2 °F 34% 29.42 in 10.0 mi East 5.8 mph - N/A   Overcast
9:56 AM 28.4 °F 20.4 °F 3.2 °F 34% 29.41 in 10.0 mi NNE 8.1 mph - N/A   Overcast
10:16 AM 28.4 °F 20.4 °F 6.8 °F 40% 29.41 in 10.0 mi NE 8.1 mph - N/A   Overcast
10:36 AM 28.4 °F 23.3 °F 5.0 °F 37% 29.40 in 10.0 mi ENE 4.6 mph - N/A   Overcast
10:56 AM 28.4 °F 23.3 °F 3.2 °F 34% 29.39 in 10.0 mi SSW 4.6 mph 19.6 mph N/A   Overcast
11:16 AM 28.4 °F 21.2 °F 3.2 °F 34% 29.39 in 10.0 mi East 6.9 mph 19.6 mph N/A   Overcast
11:36 AM 28.4 °F 22.2 °F 5.0 °F 37% 29.38 in 10.0 mi NE 5.8 mph - N/A   Overcast
11:56 AM 28.4 °F 18.5 °F 6.8 °F 40% 29.37 in 10.0 mi East 11.5 mph - N/A   Overcast
12:16 PM 28.4 °F 18.5 °F 6.8 °F 40% 29.37 in 10.0 mi East 11.5 mph 20.7 mph N/A   Overcast
12:36 PM 28.4 °F 20.4 °F 6.8 °F 40% 29.36 in 10.0 mi ENE 8.1 mph - N/A   Overcast
12:56 PM 28.4 °F 20.4 °F 5.0 °F 37% 29.37 in 10.0 mi East 8.1 mph 16.1 mph N/A   Overcast
1:36 PM 30.2 °F 22.6 °F 6.8 °F 37% 29.36 in 10.0 mi East 8.1 mph 19.6 mph N/A   Overcast
1:56 PM 30.2 °F 20.8 °F 6.8 °F 37% 29.36 in 10.0 mi ESE 11.5 mph 18.4 mph N/A   Overcast
2:16 PM 30.2 °F 24.3 °F 6.8 °F 37% 29.36 in 10.0 mi ENE 5.8 mph - N/A   Overcast
2:36 PM 30.2 °F 25.4 °F 6.8 °F 37% 29.36 in 10.0 mi East 4.6 mph 16.1 mph N/A   Overcast
2:56 PM 30.2 °F 21.9 °F 6.8 °F 37% 29.36 in 10.0 mi SSE 9.2 mph 18.4 mph N/A   Overcast
3:36 PM 30.2 °F 23.4 °F 8.6 °F 40% 29.38 in 10.0 mi East 6.9 mph 20.7 mph N/A   Overcast
3:56 PM 28.4 °F 21.2 °F 12.2 °F 51% 29.39 in 10.0 mi East 6.9 mph - N/A   Mostly Cloudy
4:16 PM 28.4 °F 21.2 °F 10.4 °F 47% 29.41 in 10.0 mi SE 6.9 mph - N/A   Mostly Cloudy
4:36 PM 28.4 °F 19.7 °F 10.4 °F 47% 29.43 in 10.0 mi SE 9.2 mph 16.1 mph N/A   Mostly Cloudy
4:56 PM 28.4 °F 23.3 °F 12.2 °F 51% 29.45 in 5.0 mi NNE 4.6 mph - N/A   Overcast
5:16 PM 26.6 °F 19.1 °F 15.8 °F 64% 29.46 in 5.0 mi NW 6.9 mph - N/A   Overcast
5:56 PM 26.6 °F 21.2 °F 12.2 °F 55% 29.46 in 8.0 mi SSE 4.6 mph - N/A   Mostly Cloudy
6:16 PM 26.6 °F 19.1 °F 12.2 °F 55% 29.47 in 8.0 mi ESE 6.9 mph - N/A   Mostly Cloudy
6:36 PM 24.8 °F 17.9 °F 14.0 °F 64% 29.46 in 8.0 mi ENE 5.8 mph - N/A   Mostly Cloudy
7:16 PM 24.8 °F 17.9 °F 10.4 °F 54% 29.46 in 10.0 mi East 5.8 mph - N/A   Scattered Clouds
7:36 PM 24.8 °F 20.5 °F 10.4 °F 54% 29.46 in 10.0 mi East 3.5 mph - N/A   Scattered Clouds
7:56 PM 24.8 °F - 12.2 °F 59% 29.46 in 10.0 mi Calm Calm - N/A   Clear
8:16 PM 21.2 °F 14.9 °F 10.4 °F 63% 29.46 in 10.0 mi WNW 4.6 mph - N/A   Clear
8:36 PM 23.0 °F 18.4 °F 14.0 °F 68% 29.46 in 10.0 mi SE 3.5 mph - N/A   Clear
9:16 PM 23.0 °F - 10.4 °F 59% 29.46 in 10.0 mi Calm Calm - N/A   Partly Cloudy
9:36 PM 21.2 °F 16.4 °F 10.4 °F 63% 29.45 in 10.0 mi SSW 3.5 mph - N/A   Partly Cloudy
9:56 PM 21.2 °F 14.9 °F 12.2 °F 68% 29.46 in 10.0 mi ESE 4.6 mph - N/A   Partly Cloudy
10:16 PM 21.2 °F 12.6 °F 12.2 °F 68% 29.45 in 10.0 mi North 6.9 mph - N/A   Clear
10:56 PM 19.4 °F 14.3 °F 12.2 °F 74% 29.45 in 10.0 mi East 3.5 mph - N/A   Scattered Clouds
11:16 PM 19.4 °F - 10.4 °F 68% 29.44 in 10.0 mi Calm Calm - N/A   Scattered Clouds
11:36 PM 19.4 °F 12.8 °F 8.6 °F 63% 29.44 in 10.0 mi East 4.6 mph - N/A   Partly Cloudy
11:56 PM 19.4 °F - 10.4 °F 68% 29.43 in 10.0 mi Calm Calm - N/A   Partly Cloudy